Location: Unspecified
(0.0000°N, 0.0000°E)
Time: 04:13:58
(UTC+00:00)

SKYMED 2 - Visible Passes

Search period start: 24 October 2017 00:00
Search period end: 03 November 2017 00:00
Orbit: 621 x 623 km, 97.9° (Epoch: 23 October)

Date Brightness Start Highest point End Pass type
(mag) Time Alt. Az. Time Alt. Az. Time Alt. Az.
24 Oct 5.5 05:13:08 10° SE 05:17:04 34° ENE 05:21:00 10° NNE visible
27 Oct 5.9 18:16:16 10° NNW 18:19:56 27° WNW 18:23:38 10° SW visible
28 Oct 6.5 04:50:27 10° ESE 04:53:06 16° ENE 04:55:45 10° NE visible
28 Oct 6.5 18:35:20 10° NW 18:37:55 16° WNW 18:40:31 10° WSW visible
29 Oct 5.8 05:07:21 10° SE 05:11:05 28° ENE 05:14:47 10° NNE visible
01 Nov 5.5 18:10:02 10° NNW 18:13:56 33° WNW 18:17:52 10° SW visible
02 Nov 6.6 04:45:04 10° ESE 04:47:06 13° ENE 04:49:07 10° NE visible
02 Nov 6.4 18:28:52 10° NNW 18:31:55 19° WNW 18:34:59 10° WSW visible
